Weather History for Angel Fire, NM

Change the Weather History Date:

Tuesday, April 30, 2013

  Actual Average (KSKX) Record (KSKX)
Temperature  
Mean Temperature 47 °F -  
Max Temperature 69 °F 63 °F 78 °F (2013)
Min Temperature 25 °F 30 °F 21 °F (2014)
Degree Days  
Heating Degree Days 18    
Moisture  
Dew Point 15 °F    
Average Humidity 30    
Maximum Humidity 71    
Minimum Humidity 12    
Precipitation  
Precipitation 0.00 in - - ()
Sea Level Pressure  
Sea Level Pressure 29.99 in    
Wind  
Wind Speed 6 mph (WSW)    
Max Wind Speed 28 mph    
Max Gust Speed 41 mph    
Visibility 10 miles    
Events      
Averages and records for this station are not official NWS values.
T = Trace of Precipitation, MM = Missing Value Source: NWS Daily Summary

Daily Weather History Graph

Daily Weather History Graph

Search for Another Location

Airport:

Trip Planner

Search our weather history database for the weather conditions in past years. The results will help you decide how hot, cold, wet, or windy it might be!

Date:

Astronomy

Apr. 30, 2013 Rise Set
Actual Time 6:08 AM MDT 7:48 PM MDT
Civil Twilight 5:41 AM MDT 8:16 PM MDT
Nautical Twilight 5:07 AM MDT 8:49 PM MDT
Astronomical Twilight 4:32 AM MDT 9:24 PM MDT
Moon 12:11 AM MDT (4/30) 10:42 AM MDT (4/30)
Length of Visible Light 14h 35m
Length of Day
13h 39m
Waning Gibbous, 69% of the Moon is Illuminated
Apr 30
Waning Gibbous
May 2
Last Quarter
May 9
New
May 17
First Quarter
May 24
Full

Hourly Weather History & Observations

Time (MDT) Temp. Windchill Dew Point Humidity Pressure Visibility Wind Dir Wind Speed Gust Speed Precip Events Conditions
12:15 AM 39.4 °F - 16.3 °F 39% 30.00 in 10.0 mi Calm Calm - N/A   Clear
12:35 AM 36.3 °F - 18.1 °F 48% 30.00 in 10.0 mi Calm Calm - N/A   Clear
12:55 AM 34.9 °F - 17.4 °F 49% 30.00 in 10.0 mi Calm Calm - N/A   Clear
1:15 AM 34.7 °F - 16.5 °F 48% 30.00 in 10.0 mi Calm Calm - N/A   Clear
1:35 AM 33.1 °F - 16.9 °F 51% 30.00 in 10.0 mi Calm Calm - N/A   Clear
1:55 AM 32.9 °F - 17.1 °F 52% 30.00 in 10.0 mi Calm Calm - N/A   Clear
2:15 AM 30.2 °F - 16.7 °F 57% 29.99 in 10.0 mi Calm Calm - N/A   Clear
2:35 AM 30.2 °F 25.4 °F 16.9 °F 58% 29.99 in 10.0 mi South 4.6 mph - N/A   Clear
2:55 AM 28.9 °F - 17.4 °F 62% 29.99 in 10.0 mi Calm Calm - N/A   Clear
3:15 AM 29.7 °F - 16.7 °F 59% 29.99 in 10.0 mi Calm Calm - N/A   Clear
3:35 AM 27.7 °F - 16.7 °F 63% 29.98 in 10.0 mi Calm Calm - N/A   Clear
3:55 AM 26.8 °F - 16.3 °F 65% 29.99 in 10.0 mi Calm Calm - N/A   Clear
4:15 AM 28.2 °F - 16.9 °F 63% 29.99 in 10.0 mi Calm Calm - N/A   Clear
4:35 AM 27.0 °F - 16.5 °F 65% 30.00 in 10.0 mi Calm Calm - N/A   Clear
4:55 AM 27.3 °F - 17.6 °F 67% 30.00 in 10.0 mi Calm Calm - N/A   Clear
5:15 AM 26.6 °F 21.2 °F 17.2 °F 68% 30.00 in 10.0 mi SSE 4.6 mph - N/A   Clear
5:35 AM 26.4 °F - 17.8 °F 70% 30.00 in 10.0 mi Calm Calm - N/A   Clear
5:55 AM 25.7 °F - 16.7 °F 69% 30.01 in 10.0 mi Calm Calm - N/A   Clear
6:15 AM 26.2 °F - 17.4 °F 69% 30.02 in 10.0 mi Calm Calm - N/A   Clear
6:35 AM 26.1 °F - 17.8 °F 71% 30.02 in 10.0 mi Calm Calm - N/A   Clear
6:55 AM 28.4 °F - 19.2 °F 69% 30.02 in 10.0 mi Calm Calm - N/A   Clear
7:15 AM 32.0 °F - 20.5 °F 63% 30.02 in 10.0 mi Calm Calm - N/A   Clear
7:35 AM 36.1 °F - 21.0 °F 54% 30.03 in 10.0 mi Calm Calm - N/A   Clear
7:55 AM 39.7 °F - 21.0 °F 47% 30.03 in 10.0 mi Calm Calm - N/A   Clear
8:15 AM 43.3 °F - 23.0 °F 45% 30.03 in 10.0 mi Calm Calm - N/A   Clear
8:35 AM 46.9 °F - 22.3 °F 38% 30.03 in 10.0 mi Calm Calm - N/A   Clear
8:55 AM 54.9 °F - 21.4 °F 27% 30.03 in 10.0 mi Calm Calm - N/A   Clear
9:15 AM 59.4 °F - 17.1 °F 19% 30.03 in 10.0 mi West 4.6 mph - N/A   Clear
9:35 AM 60.8 °F - 17.2 °F 18% 30.04 in 10.0 mi WSW 12.7 mph 19.6 mph N/A   Clear
9:55 AM 61.0 °F - 17.2 °F 18% 30.03 in 10.0 mi West 12.7 mph 23.0 mph N/A   Clear
10:15 AM 61.9 °F - 17.6 °F 18% 30.03 in 10.0 mi West 16.1 mph 25.3 mph N/A   Clear
10:35 AM 61.9 °F - 17.4 °F 18% 30.04 in 10.0 mi West 15.0 mph 27.6 mph N/A   Clear
10:55 AM 60.8 °F - 17.6 °F 19% 30.04 in 10.0 mi WNW 11.5 mph 21.9 mph N/A   Clear
11:15 AM 62.2 °F - 18.3 °F 18% 30.04 in 10.0 mi West 11.5 mph 28.8 mph N/A   Clear
11:35 AM 64.4 °F - 17.8 °F 17% 30.03 in 10.0 mi West 18.4 mph 26.5 mph N/A   Clear
11:55 AM 64.9 °F - 16.9 °F 16% 30.02 in 10.0 mi West 17.3 mph 34.5 mph N/A   Clear
12:15 PM 65.1 °F - 16.7 °F 15% 30.01 in 10.0 mi West 18.4 mph 32.2 mph N/A   Clear
12:35 PM 65.1 °F - 17.4 °F 16% 30.00 in 10.0 mi SW 18.4 mph 27.6 mph N/A   Clear
12:55 PM 66.2 °F - 16.3 °F 15% 30.00 in 10.0 mi West 24.2 mph 28.8 mph N/A   Clear
1:15 PM 67.3 °F - 14.7 °F 13% 29.99 in 10.0 mi West 27.6 mph 41.4 mph N/A   Clear
1:35 PM 66.4 °F - 15.8 °F 14% 29.98 in 10.0 mi West 20.7 mph 32.2 mph N/A   Clear
1:55 PM 68.5 °F - 17.2 °F 14% 29.98 in 10.0 mi WSW 20.7 mph 31.1 mph N/A   Clear
2:15 PM 67.3 °F - 15.4 °F 14% 29.99 in 10.0 mi West 18.4 mph 29.9 mph N/A   Scattered Clouds
2:35 PM 68.2 °F - 15.4 °F 13% 29.97 in 10.0 mi West 19.6 mph 32.2 mph N/A   Clear
2:55 PM 68.7 °F - 15.4 °F 13% 29.97 in 10.0 mi WSW 21.9 mph 26.5 mph N/A   Clear
3:15 PM 68.9 °F - 13.8 °F 12% 29.96 in 10.0 mi West 20.7 mph 36.8 mph N/A   Scattered Clouds
3:35 PM 69.3 °F - 15.3 °F 13% 29.95 in 10.0 mi West 25.3 mph 33.4 mph N/A   Clear
3:55 PM 68.4 °F - 14.4 °F 13% 29.95 in 10.0 mi SW 20.7 mph 34.5 mph N/A   Clear
4:15 PM 68.4 °F - 14.4 °F 13% 29.95 in 10.0 mi West 19.6 mph 34.5 mph N/A   Clear
4:35 PM 68.4 °F - 12.9 °F 12% 29.94 in 10.0 mi West 20.7 mph 33.4 mph N/A   Clear
4:55 PM 67.8 °F - 12.9 °F 12% 29.94 in 10.0 mi SW 23.0 mph 34.5 mph N/A   Clear
5:15 PM 68.4 °F - 13.1 °F 12% 29.94 in 10.0 mi SW 18.4 mph 31.1 mph N/A   Clear
5:35 PM 68.2 °F - 12.4 °F 12% 29.95 in 10.0 mi SW 25.3 mph 29.9 mph N/A   Clear
5:55 PM 67.1 °F - 12.4 °F 12% 29.95 in 10.0 mi West 10.4 mph 24.2 mph N/A   Clear
6:15 PM 66.0 °F - 11.8 °F 12% 29.94 in 10.0 mi West 12.7 mph 28.8 mph N/A   Clear
6:35 PM 66.0 °F - 11.1 °F 12% 29.95 in 10.0 mi WSW 6.9 mph 29.9 mph N/A   Clear
6:55 PM 63.7 °F - 10.2 °F 12% 29.95 in 10.0 mi West 11.5 mph - N/A   Clear
7:15 PM 62.1 °F - 9.7 °F 13% 29.95 in 10.0 mi West 15.0 mph 23.0 mph N/A   Clear
7:35 PM 61.7 °F - 9.0 °F 13% 29.96 in 10.0 mi SW 8.1 mph - N/A   Clear
7:55 PM 61.3 °F - 8.2 °F 12% 29.96 in 10.0 mi WSW 10.4 mph 19.6 mph N/A   Clear
8:15 PM 60.6 °F - 8.4 °F 13% 29.96 in 10.0 mi WSW 13.8 mph 20.7 mph N/A   Clear
8:35 PM 60.1 °F - 9.0 °F 13% 29.97 in 10.0 mi WSW 15.0 mph 25.3 mph N/A   Clear
8:55 PM 60.1 °F - 9.9 °F 14% 29.97 in 10.0 mi WSW 9.2 mph 20.7 mph N/A   Clear
9:15 PM 59.5 °F - 10.0 °F 14% 29.97 in 10.0 mi WSW 9.2 mph 17.3 mph N/A   Clear
9:35 PM 59.0 °F - 10.2 °F 15% 29.98 in 10.0 mi WSW 11.5 mph 17.3 mph N/A   Clear
9:55 PM 59.0 °F - 9.5 °F 14% 29.99 in 10.0 mi WSW 8.1 mph 19.6 mph N/A   Clear
10:15 PM 57.7 °F - 9.5 °F 15% 29.99 in 10.0 mi WSW 9.2 mph 17.3 mph N/A   Clear
10:35 PM 55.8 °F - 9.0 °F 15% 29.99 in 10.0 mi WSW 8.1 mph - N/A   Clear
10:55 PM 54.7 °F - 8.6 °F 16% 29.99 in 10.0 mi WSW 3.5 mph - N/A   Clear
11:15 PM 53.8 °F - 9.7 °F 17% 30.00 in 10.0 mi Calm Calm - N/A   Clear
11:35 PM 53.1 °F - 9.3 °F 17% 30.00 in 10.0 mi WSW 5.8 mph - N/A   Clear
11:55 PM 53.6 °F - 8.4 °F 16% 30.00 in 10.0 mi SSW 4.6 mph - N/A   Clear